START_TIME,STEP,MOV.,M35,t_acc.,PL05,t_acc.,PL06,t_acc.,PL07,t_acc.
1979-07-20 12:00:23.680 ,0,0,0.,4.8,2.,4.8,3.,4.8,2.,4.8
1979-07-20 12:00:28.480 ,0,0,0.,4.8,5.,4.8,2.,4.8,0.,4.8
1979-07-20 12:00:33.280 ,0,0,0.,4.8,3.,4.8,3.,4.8,2.,4.8
1979-07-20 12:00:38.080 ,0,0,0.,4.8,2.,4.8,0.,4.8,0.,4.8
1979-07-20 12:00:42.880 ,0,0,0.,4.8,0.,4.8,4.,4.8,3.,4.8
1979-07-20 12:00:47.680 ,1,0,0.,4.8,3.,4.8,1.,4.8,2.,4.8
1979-07-20 12:00:52.480 ,1,0,0.,4.8,5.,4.8,1.,4.8,1.,4.8
1979-07-20 12:00:57.280 ,1,0,0.,4.8,4.,4.8,2.,4.8,4.,4.8
1979-07-20 12:01:02.080 ,1,0,0.,4.8,4.,4.8,1.,4.8,0.,4.8
1979-07-20 12:01:06.880 ,1,0,0.,4.8,4.,4.8,2.,4.8,1.,4.8
1979-07-20 12:01:11.680 ,1,0,0.,4.8,1.,4.8,4.,4.8,1.,4.8
1979-07-20 12:01:16.480 ,1,0,0.,4.8,3.,4.8,4.,4.8,0.,4.8
1979-07-20 12:01:21.280 ,1,0,0.,4.8,4.,4.8,2.,4.8,1.,4.8
1979-07-20 12:01:26.080 ,1,0,0.,4.8,3.,4.8,1.,4.8,0.,4.8
1979-07-20 12:01:30.880 ,1,0,0.,4.8,5.,4.8,1.,4.8,1.,4.8
1979-07-20 12:01:35.680 ,2,0,0.,4.8,0.,4.8,2.,4.8,3.,4.8
1979-07-20 12:01:40.480 ,2,0,0.,4.8,3.,4.8,3.,4.8,4.,4.8
1979-07-20 12:01:45.280 ,2,0,0.,4.8,9.,4.8,3.,4.8,2.,4.8
1979-07-20 12:01:50.080 ,2,0,0.,4.8,2.,4.8,6.,4.8,1.,4.8
1979-07-20 12:01:54.880 ,2,0,0.,4.8,4.,4.8,1.,4.8,1.,4.8
1979-07-20 12:01:59.680 ,2,0,0.,4.8,1.,4.8,1.,4.8,2.,4.8
1979-07-20 12:02:04.480 ,2,0,0.,4.8,6.,4.8,5.,4.8,1.,4.8
1979-07-20 12:02:09.280 ,2,0,0.,4.8,7.,4.8,2.,4.8,2.,4.8
1979-07-20 12:02:14.080 ,2,0,0.,4.8,2.,4.8,0.,4.8,2.,4.8
1979-07-20 12:02:18.880 ,2,0,0.,4.8,3.,4.8,3.,4.8,4.,4.8
1979-07-20 12:02:23.680 ,3,0,0.,4.8,3.,4.8,3.,4.8,1.,4.8
1979-07-20 12:02:28.470 ,3,0,0.,4.8,3.,4.8,1.,4.8,0.,4.8
1979-07-20 12:02:33.270 ,3,0,0.,4.8,2.,4.8,1.,4.8,2.,4.8
1979-07-20 12:02:38.070 ,3,0,0.,4.8,3.,4.8,2.,4.8,4.,4.8
1979-07-20 12:02:42.880 ,3,0,0.,4.8,3.,4.8,2.,4.8,4.,4.8
1979-07-20 12:02:47.670 ,3,0,0.,4.8,0.,4.8,0.,4.8,2.,4.8
1979-07-20 12:02:52.470 ,3,0,0.,4.8,7.,4.8,2.,4.8,2.,4.8
1979-07-20 12:02:57.270 ,3,0,0.,4.8,5.,4.8,1.,4.8,4.,4.8
1979-07-20 12:03:02.070 ,3,0,0.,4.8,3.,4.8,4.,4.8,3.,4.8
1979-07-20 12:03:06.880 ,3,0,0.,4.8,1.,4.8,2.,4.8,0.,4.8
1979-07-20 12:03:11.670 ,4,0,0.,4.8,3.,4.8,2.,4.8,1.,4.8
1979-07-20 12:03:16.470 ,4,0,0.,4.8,1.,4.8,0.,4.8,2.,4.8
1979-07-20 12:03:21.270 ,4,0,0.,4.8,2.,4.8,2.,4.8,1.,4.8
1979-07-20 12:03:26.070 ,4,0,0.,4.8,4.,4.8,1.,4.8,2.,4.8
1979-07-20 12:03:30.880 ,4,0,0.,4.8,3.,4.8,4.,4.8,0.,4.8
1979-07-20 12:03:35.670 ,4,0,0.,4.8,2.,4.8,1.,4.8,0.,4.8
1979-07-20 12:03:40.470 ,4,0,0.,4.8,2.,4.8,3.,4.8,2.,4.8
1979-07-20 12:03:45.270 ,4,0,0.,4.8,1.,4.8,1.,4.8,2.,4.8
1979-07-20 12:03:50.070 ,4,0,0.,4.8,2.,4.8,0.,4.8,1.,4.8
1979-07-20 12:03:54.880 ,4,0,0.,4.8,6.,4.8,1.,4.8,0.,4.8
1979-07-20 12:03:59.670 ,5,0,0.,4.8,3.,4.8,2.,4.8,2.,4.8
1979-07-20 12:04:04.470 ,5,0,0.,4.8,3.,4.8,3.,4.8,0.,4.8
1979-07-20 12:04:09.270 ,5,0,0.,4.8,2.,4.8,0.,4.8,2.,4.8
1979-07-20 12:04:14.080 ,5,0,0.,4.8,2.,4.8,4.,4.8,1.,4.8
1979-07-20 12:04:18.880 ,5,0,0.,4.8,2.,4.8,1.,4.8,1.,4.8
1979-07-20 12:04:23.670 ,5,0,0.,4.8,0.,4.8,3.,4.8,0.,4.8
1979-07-20 12:04:28.480 ,5,0,0.,4.8,1.,4.8,3.,4.8,2.,4.8
1979-07-20 12:04:33.270 ,5,0,0.,4.8,5.,4.8,3.,4.8,0.,4.8
1979-07-20 12:04:38.080 ,5,0,0.,4.8,7.,4.8,0.,4.8,0.,4.8
1979-07-20 12:04:42.880 ,5,0,0.,4.8,2.,4.8,1.,4.8,1.,4.8
1979-07-20 12:04:47.670 ,6,0,0.,4.8,4.,4.8,3.,4.8,1.,4.8
1979-07-20 12:04:52.480 ,6,0,0.,4.8,3.,4.8,3.,4.8,1.,4.8
1979-07-20 12:04:57.270 ,6,0,0.,4.8,1.,4.8,1.,4.8,4.,4.8
1979-07-20 12:05:02.080 ,6,0,0.,4.8,4.,4.8,2.,4.8,3.,4.8
1979-07-20 12:05:06.880 ,6,0,0.,4.8,3.,4.8,0.,4.8,1.,4.8
1979-07-20 12:05:11.670 ,6,0,0.,4.8,3.,4.8,3.,4.8,2.,4.8
1979-07-20 12:05:16.480 ,6,0,0.,4.8,5.,4.8,1.,4.8,0.,4.8
1979-07-20 12:05:21.270 ,6,0,0.,4.8,5.,4.8,6.,4.8,1.,4.8
1979-07-20 12:05:26.080 ,6,0,0.,4.8,2.,4.8,4.,4.8,1.,4.8
1979-07-20 12:05:30.880 ,6,0,0.,4.8,2.,4.8,3.,4.8,2.,4.8
1979-07-20 12:05:35.670 ,7,0,0.,4.8,2.,4.8,2.,4.8,1.,4.8
1979-07-20 12:05:40.480 ,7,0,0.,4.8,1.,4.8,1.,4.8,0.,4.8
1979-07-20 12:05:45.270 ,7,0,0.,4.8,0.,4.8,0.,4.8,0.,4.8
1979-07-20 12:05:50.080 ,7,0,0.,4.8,0.,4.8,0.,4.8,0.,4.8
1979-07-20 12:05:54.880 ,7,0,0.,4.8,0.,4.8,0.,4.8,0.,4.8
1979-07-20 12:05:59.670 ,7,0,0.,4.8,0.,4.8,0.,4.8,0.,4.8
1979-07-20 12:06:04.480 ,7,0,0.,4.8,0.,4.8,1.,4.8,0.,4.8
1979-07-20 12:06:09.270 ,7,0,0.,4.8,0.,4.8,0.,4.8,0.,4.8
1979-07-20 12:06:14.080 ,7,0,0.,4.8,0.,4.8,0.,4.8,0.,4.8
1979-07-20 12:06:18.880 ,7,0,0.,4.8,0.,4.8,1.,4.8,0.,4.8
1979-07-20 12:06:23.670 ,7,0,0.,4.8,1.,4.8,0.,4.8,0.,4.8
1979-07-20 12:06:28.480 ,7,0,0.,4.8,0.,4.8,0.,4.8,0.,4.8
1979-07-20 12:06:33.270 ,7,0,0.,4.8,0.,4.8,0.,4.8,0.,4.8
1979-07-20 12:06:38.080 ,7,0,0.,4.8,1.,4.8,0.,4.8,0.,4.8
1979-07-20 12:06:42.880 ,7,0,0.,4.8,0.,4.8,0.,4.8,0.,4.8
1979-07-20 12:06:47.670 ,7,0,0.,4.8,1.,4.8,0.,4.8,0.,4.8
1979-07-20 12:06:52.480 ,7,0,0.,4.8,0.,4.8,1.,4.8,0.,4.8
1979-07-20 12:06:57.270 ,7,0,0.,4.8,2.,4.8,0.,4.8,0.,4.8
1979-07-20 12:07:02.080 ,7,0,0.,4.8,0.,4.8,0.,4.8,0.,4.8
1979-07-20 12:07:06.880 ,7,0,0.,4.8,0.,4.8,1.,4.8,0.,4.8
1979-07-20 12:07:11.670 ,6,0,0.,4.8,0.,4.8,0.,4.8,0.,4.8
1979-07-20 12:07:16.480 ,6,0,0.,4.8,1.,4.8,1.,4.8,1.,4.8
1979-07-20 12:07:21.270 ,6,0,0.,4.8,2.,4.8,1.,4.8,1.,4.8
1979-07-20 12:07:26.080 ,6,0,0.,4.8,5.,4.8,0.,4.8,3.,4.8
1979-07-20 12:07:30.880 ,6,0,0.,4.8,2.,4.8,1.,4.8,3.,4.8
1979-07-20 12:07:35.670 ,6,0,0.,4.8,3.,4.8,3.,4.8,3.,4.8
1979-07-20 12:07:40.480 ,6,0,0.,4.8,4.,4.8,2.,4.8,1.,4.8
1979-07-20 12:07:45.270 ,6,0,0.,4.8,5.,4.8,0.,4.8,0.,4.8
1979-07-20 12:07:50.080 ,6,0,0.,4.8,4.,4.8,1.,4.8,0.,4.8
1979-07-20 12:07:54.880 ,6,0,0.,4.8,1.,4.8,2.,4.8,1.,4.8
1979-07-20 12:07:35.670 ,6,0,0.,4.8,3.,4.8,3.,4.8,3.,4.8
1979-07-20 12:07:40.480 ,6,0,0.,4.8,4.,4.8,2.,4.8,1.,4.8
1979-07-20 12:07:45.270 ,6,0,0.,4.8,5.,4.8,0.,4.8,0.,4.8
1979-07-20 12:07:50.080 ,6,0,0.,4.8,4.,4.8,1.,4.8,0.,4.8
1979-07-20 12:07:54.880 ,6,0,0.,4.8,1.,4.8,2.,4.8,1.,4.8
1979-07-20 12:07:59.670 ,5,0,0.,4.8,2.,4.8,1.,4.8,2.,4.8
1979-07-20 12:08:04.480 ,5,0,0.,4.8,2.,4.8,2.,4.8,0.,4.8
1979-07-20 12:08:09.270 ,5,0,0.,4.8,3.,4.8,2.,4.8,1.,4.8
1979-07-20 12:08:14.080 ,5,0,0.,4.8,8.,4.8,1.,4.8,3.,4.8
1979-07-20 12:08:18.880 ,5,0,0.,4.8,3.,4.8,0.,4.8,0.,4.8
1979-07-20 12:08:23.670 ,5,0,0.,4.8,2.,4.8,2.,4.8,1.,4.8
1979-07-20 12:08:28.480 ,5,0,0.,4.8,2.,4.8,2.,4.8,1.,4.8
1979-07-20 12:08:33.280 ,5,0,0.,4.8,1.,4.8,4.,4.8,2.,4.8
1979-07-20 12:08:38.080 ,5,0,0.,4.8,1.,4.8,3.,4.8,3.,4.8
1979-07-20 12:08:42.880 ,5,0,0.,4.8,3.,4.8,3.,4.8,2.,4.8
1979-07-20 12:08:47.680 ,4,0,0.,4.8,5.,4.8,1.,4.8,2.,4.8
1979-07-20 12:08:52.480 ,4,0,0.,4.8,0.,4.8,3.,4.8,1.,4.8
1979-07-20 12:08:57.280 ,4,0,0.,4.8,3.,4.8,0.,4.8,2.,4.8
1979-07-20 12:09:02.080 ,4,0,0.,4.8,4.,4.8,2.,4.8,2.,4.8
1979-07-20 12:09:06.880 ,4,0,0.,4.8,3.,4.8,1.,4.8,2.,4.8
1979-07-20 12:09:11.680 ,4,0,0.,4.8,2.,4.8,1.,4.8,2.,4.8
1979-07-20 12:09:16.480 ,4,0,0.,4.8,1.,4.8,1.,4.8,0.,4.8
1979-07-20 12:09:21.280 ,4,0,0.,4.8,4.,4.8,3.,4.8,2.,4.8
1979-07-20 12:09:26.080 ,4,0,0.,4.8,5.,4.8,2.,4.8,3.,4.8
1979-07-20 12:09:30.880 ,4,0,0.,4.8,2.,4.8,1.,4.8,1.,4.8
1979-07-20 12:09:35.680 ,3,0,0.,4.8,4.,4.8,1.,4.8,3.,4.8
1979-07-20 12:09:40.480 ,3,0,0.,4.8,3.,4.8,3.,4.8,1.,4.8
1979-07-20 12:09:45.280 ,3,0,0.,4.8,2.,4.8,4.,4.8,2.,4.8
1979-07-20 12:09:50.080 ,3,0,0.,4.8,3.,4.8,0.,4.8,2.,4.8
1979-07-20 12:09:54.880 ,3,0,0.,4.8,7.,4.8,1.,4.8,0.,4.8
1979-07-20 12:09:59.680 ,3,0,0.,4.8,9.,4.8,2.,4.8,1.,4.8
1979-07-20 12:10:04.480 ,3,0,0.,4.8,3.,4.8,1.,4.8,2.,4.8
1979-07-20 12:10:09.280 ,3,0,0.,4.8,1.,4.8,0.,4.8,0.,4.8
1979-07-20 12:10:14.080 ,3,0,0.,4.8,4.,4.8,2.,4.8,2.,4.8
1979-07-20 12:10:18.880 ,3,0,0.,4.8,2.,4.8,1.,4.8,1.,4.8
1979-07-20 12:10:23.680 ,2,0,0.,4.8,3.,4.8,1.,4.8,2.,4.8
1979-07-20 12:10:28.480 ,2,0,0.,4.8,2.,4.8,2.,4.8,2.,4.8
1979-07-20 12:10:33.280 ,2,0,0.,4.8,6.,4.8,1.,4.8,2.,4.8
1979-07-20 12:10:38.080 ,2,0,0.,4.8,8.,4.8,1.,4.8,0.,4.8
1979-07-20 12:10:42.880 ,2,0,0.,4.8,3.,4.8,3.,4.8,1.,4.8
1979-07-20 12:10:47.680 ,2,0,0.,4.8,3.,4.8,3.,4.8,2.,4.8
1979-07-20 12:10:52.480 ,2,0,0.,4.8,3.,4.8,1.,4.8,1.,4.8
1979-07-20 12:10:57.280 ,2,0,0.,4.8,3.,4.8,3.,4.8,1.,4.8
1979-07-20 12:11:02.080 ,2,0,0.,4.8,3.,4.8,1.,4.8,2.,4.8
1979-07-20 12:11:06.880 ,2,0,0.,4.8,3.,4.8,3.,4.8,2.,4.8
1979-07-20 12:11:11.680 ,1,0,0.,4.8,4.,4.8,4.,4.8,2.,4.8
1979-07-20 12:11:16.480 ,1,0,0.,4.8,4.,4.8,2.,4.8,2.,4.8
1979-07-20 12:11:21.280 ,1,0,0.,4.8,3.,4.8,7.,4.8,0.,4.8
1979-07-20 12:11:26.080 ,1,0,0.,4.8,4.,4.8,2.,4.8,0.,4.8
1979-07-20 12:11:30.880 ,1,0,0.,4.8,3.,4.8,0.,4.8,2.,4.8
1979-07-20 12:11:35.680 ,1,0,0.,4.8,4.,4.8,2.,4.8,1.,4.8
1979-07-20 12:11:40.480 ,1,0,0.,4.8,7.,4.8,2.,4.8,2.,4.8
1979-07-20 12:11:45.280 ,1,0,0.,4.8,3.,4.8,1.,4.8,0.,4.8
1979-07-20 12:11:50.080 ,1,0,0.,4.8,3.,4.8,0.,4.8,1.,4.8
1979-07-20 12:11:54.880 ,1,0,0.,4.8,1.,4.8,1.,4.8,1.,4.8
1979-07-20 12:11:59.680 ,0,0,0.,4.8,2.,4.8,2.,4.8,2.,4.8
1979-07-20 12:12:04.480 ,0,0,0.,4.8,3.,4.8,1.,4.8,0.,4.8
1979-07-20 12:12:09.280 ,0,0,0.,4.8,4.,4.8,1.,4.8,1.,4.8
1979-07-20 12:12:14.080 ,0,0,0.,4.8,0.,4.8,2.,4.8,1.,4.8
1979-07-20 12:12:18.880 ,0,0,0.,4.8,2.,4.8,0.,4.8,4.,4.8
1979-07-20 12:12:23.680 ,0,0,0.,4.8,1.,4.8,2.,4.8,0.,4.8
1979-07-20 12:12:28.480 ,0,0,0.,4.8,0.,4.8,2.,4.8,2.,4.8
1979-07-20 12:12:33.280 ,0,0,0.,4.8,1.,4.8,3.,4.8,1.,4.8
1979-07-20 12:12:38.080 ,0,0,0.,4.8,1.,4.8,2.,4.8,1.,4.8
1979-07-20 12:12:42.880 ,0,0,0.,4.8,1.,4.8,1.,4.8,1.,4.8
1979-07-20 12:12:47.680 ,0,0,0.,4.8,2.,4.8,2.,4.8,2.,4.8
1979-07-20 12:12:52.480 ,0,0,0.,4.8,4.,4.8,3.,4.8,1.,4.8
1979-07-20 12:12:57.280 ,0,0,0.,4.8,3.,4.8,0.,4.8,2.,4.8
1979-07-20 12:13:02.080 ,0,0,0.,4.8,4.,4.8,0.,4.8,1.,4.8
1979-07-20 12:13:06.880 ,0,0,0.,4.8,0.,4.8,0.,4.8,3.,4.8
1979-07-20 12:13:11.680 ,0,0,0.,4.8,1.,4.8,1.,4.8,1.,4.8
1979-07-20 12:13:16.480 ,0,0,0.,4.8,1.,4.8,0.,4.8,0.,4.8
1979-07-20 12:13:21.280 ,0,0,0.,4.8,1.,4.8,1.,4.8,0.,4.8
1979-07-20 12:13:26.080 ,0,0,0.,4.8,5.,4.8,1.,4.8,0.,4.8
1979-07-20 12:13:30.880 ,0,0,0.,4.8,3.,4.8,0.,4.8,2.,4.8
1979-07-20 12:13:35.680 ,1,0,0.,4.8,4.,4.8,1.,4.8,1.,4.8
1979-07-20 12:13:40.480 ,1,0,0.,4.8,1.,4.8,0.,4.8,1.,4.8
1979-07-20 12:13:45.280 ,1,0,0.,4.8,3.,4.8,0.,4.8,3.,4.8
1979-07-20 12:13:50.080 ,1,0,0.,4.8,3.,4.8,4.,4.8,2.,4.8
1979-07-20 12:13:54.880 ,1,0,0.,4.8,0.,4.8,0.,4.8,3.,4.8
1979-07-20 12:13:59.680 ,1,0,0.,4.8,3.,4.8,5.,4.8,1.,4.8
1979-07-20 12:14:04.480 ,1,0,0.,4.8,7.,4.8,2.,4.8,1.,4.8
1979-07-20 12:14:09.280 ,1,0,0.,4.8,3.,4.8,0.,4.8,2.,4.8
1979-07-20 12:14:14.080 ,1,0,0.,4.8,3.,4.8,3.,4.8,1.,4.8
1979-07-20 12:14:18.880 ,1,0,0.,4.8,3.,4.8,0.,4.8,3.,4.8
1979-07-20 12:14:23.680 ,2,0,0.,4.8,2.,4.8,3.,4.8,2.,4.8
1979-07-20 12:14:28.480 ,2,0,0.,4.8,4.,4.8,3.,4.8,3.,4.8
1979-07-20 12:14:33.280 ,2,0,0.,4.8,6.,4.8,2.,4.8,0.,4.8
1979-07-20 12:14:38.080 ,2,0,0.,4.8,2.,4.8,1.,4.8,2.,4.8
1979-07-20 12:14:42.880 ,2,0,0.,4.8,4.,4.8,4.,4.8,1.,4.8
1979-07-20 12:14:47.680 ,2,0,0.,4.8,1.,4.8,0.,4.8,3.,4.8
1979-07-20 12:14:52.480 ,2,0,0.,4.8,1.,4.8,1.,4.8,4.,4.8
1979-07-20 12:14:57.280 ,2,0,0.,4.8,5.,4.8,5.,4.8,1.,4.8
1979-07-20 12:15:02.080 ,2,0,0.,4.8,3.,4.8,2.,4.8,0.,4.8
1979-07-20 12:15:06.880 ,2,0,0.,4.8,4.,4.8,2.,4.8,1.,4.8
1979-07-20 12:15:11.680 ,3,0,0.,4.8,4.,4.8,3.,4.8,3.,4.8
1979-07-20 12:15:16.480 ,3,0,0.,4.8,6.,4.8,1.,4.8,1.,4.8
1979-07-20 12:15:21.280 ,3,0,0.,4.8,2.,4.8,3.,4.8,1.,4.8
1979-07-20 12:15:26.080 ,3,0,0.,4.8,5.,4.8,2.,4.8,1.,4.8
1979-07-20 12:15:30.880 ,3,0,0.,4.8,7.,4.8,2.,4.8,0.,4.8
1979-07-20 12:15:35.680 ,3,0,0.,4.8,5.,4.8,3.,4.8,0.,4.8
1979-07-20 12:15:40.480 ,3,0,0.,4.8,5.,4.8,3.,4.8,0.,4.8
1979-07-20 12:15:45.280 ,3,0,0.,4.8,4.,4.8,4.,4.8,2.,4.8
1979-07-20 12:15:50.080 ,3,0,0.,4.8,4.,4.8,5.,4.8,1.,4.8
1979-07-20 12:15:54.880 ,3,0,0.,4.8,9.,4.8,1.,4.8,3.,4.8
1979-07-20 12:15:59.680 ,4,0,0.,4.8,6.,4.8,1.,4.8,2.,4.8
1979-07-20 12:16:04.480 ,4,0,0.,4.8,4.,4.8,0.,4.8,3.,4.8
1979-07-20 12:16:09.280 ,4,0,0.,4.8,4.,4.8,0.,4.8,3.,4.8
1979-07-20 12:16:14.080 ,4,0,0.,4.8,5.,4.8,1.,4.8,0.,4.8
1979-07-20 12:16:18.880 ,4,0,0.,4.8,3.,4.8,1.,4.8,5.,4.8
1979-07-20 12:16:23.680 ,4,0,0.,4.8,3.,4.8,1.,4.8,2.,4.8
1979-07-20 12:16:28.480 ,4,0,0.,4.8,1.,4.8,3.,4.8,3.,4.8
1979-07-20 12:16:33.280 ,4,0,0.,4.8,6.,4.8,7.,4.8,4.,4.8
1979-07-20 12:16:38.080 ,4,0,0.,4.8,7.,4.8,4.,4.8,0.,4.8
1979-07-20 12:16:42.880 ,4,0,0.,4.8,3.,4.8,2.,4.8,2.,4.8
1979-07-20 12:16:47.680 ,5,0,0.,4.8,3.,4.8,3.,4.8,1.,4.8
1979-07-20 12:16:52.480 ,5,0,0.,4.8,2.,4.8,2.,4.8,0.,4.8
1979-07-20 12:16:57.280 ,5,0,0.,4.8,2.,4.8,5.,4.8,1.,4.8
1979-07-20 12:17:02.080 ,5,0,0.,4.8,5.,4.8,0.,4.8,0.,4.8
1979-07-20 12:17:06.880 ,5,0,0.,4.8,5.,4.8,3.,4.8,4.,4.8
1979-07-20 12:17:11.680 ,5,0,0.,4.8,1.,4.8,0.,4.8,1.,4.8
1979-07-20 12:17:16.470 ,5,0,0.,4.8,3.,4.8,1.,4.8,1.,4.8
1979-07-20 12:17:21.280 ,5,0,0.,4.8,1.,4.8,1.,4.8,1.,4.8
1979-07-20 12:17:26.080 ,5,0,0.,4.8,1.,4.8,3.,4.8,0.,4.8
1979-07-20 12:17:30.880 ,5,0,0.,4.8,4.,4.8,2.,4.8,2.,4.8
1979-07-20 12:17:35.680 ,6,0,0.,4.8,4.,4.8,2.,4.8,2.,4.8
1979-07-20 12:17:40.470 ,6,0,0.,4.8,1.,4.8,2.,4.8,0.,4.8
1979-07-20 12:17:45.280 ,6,0,0.,4.8,3.,4.8,1.,4.8,1.,4.8
1979-07-20 12:17:50.080 ,6,0,0.,4.8,3.,4.8,2.,4.8,1.,4.8
1979-07-20 12:17:54.880 ,6,0,0.,4.8,2.,4.8,1.,4.8,4.,4.8
1979-07-20 12:17:59.680 ,6,0,0.,4.8,2.,4.8,3.,4.8,1.,4.8
1979-07-20 12:18:04.470 ,6,0,0.,4.8,3.,4.8,3.,4.8,4.,4.8
1979-07-20 12:18:09.280 ,6,0,0.,4.8,3.,4.8,1.,4.8,2.,4.8
1979-07-20 12:18:14.080 ,6,0,0.,4.8,2.,4.8,2.,4.8,0.,4.8
1979-07-20 12:18:18.880 ,6,0,0.,4.8,7.,4.8,1.,4.8,0.,4.8
1979-07-20 12:18:23.680 ,7,0,0.,4.8,2.,4.8,0.,4.8,2.,4.8
1979-07-20 12:18:28.470 ,7,0,0.,4.8,0.,4.8,3.,4.8,1.,4.8
1979-07-20 12:18:33.280 ,7,0,0.,4.8,0.,4.8,1.,4.8,0.,4.8
1979-07-20 12:18:38.080 ,7,0,0.,4.8,1.,4.8,0.,4.8,0.,4.8
1979-07-20 12:18:42.880 ,7,0,0.,4.8,1.,4.8,0.,4.8,0.,4.8
1979-07-20 12:18:47.680 ,7,0,0.,4.8,0.,4.8,0.,4.8,0.,4.8
1979-07-20 12:18:52.470 ,7,0,0.,4.8,0.,4.8,0.,4.8,0.,4.8
1979-07-20 12:18:57.280 ,7,0,0.,4.8,0.,4.8,0.,4.8,0.,4.8
1979-07-20 12:19:02.080 ,7,0,0.,4.8,0.,4.8,0.,4.8,0.,4.8
1979-07-20 12:19:06.880 ,7,0,0.,4.8,0.,4.8,0.,4.8,0.,4.8
1979-07-20 12:19:11.680 ,3,1,0.,4.8,1.,4.8,0.,4.8,1.,4.8
1979-07-20 12:19:16.470 ,3,1,0.,4.8,3.,4.8,3.,4.8,0.,4.8
1979-07-20 12:19:21.280 ,3,1,0.,4.8,1.,4.8,2.,4.8,2.,4.8
1979-07-20 12:19:26.080 ,3,1,0.,4.8,4.,4.8,1.,4.8,1.,4.8
1979-07-20 12:19:30.880 ,3,1,0.,4.8,2.,4.8,2.,4.8,1.,4.8
1979-07-20 12:19:35.680 ,0,1,0.,4.8,6.,4.8,2.,4.8,1.,4.8
1979-07-20 12:19:40.470 ,0,1,0.,4.8,2.,4.8,6.,4.8,3.,4.8
1979-07-20 12:19:45.280 ,0,1,0.,4.8,4.,4.8,6.,4.8,2.,4.8
1979-07-20 12:19:50.080 ,0,1,0.,4.8,3.,4.8,1.,4.8,1.,4.8
1979-07-20 12:19:54.880 ,0,1,0.,4.8,0.,4.8,3.,4.8,0.,4.8
1979-07-20 12:19:59.680 ,4,1,0.,4.8,3.,4.8,4.,4.8,1.,4.8
1979-07-20 12:20:04.470 ,4,1,0.,4.8,2.,4.8,2.,4.8,1.,4.8
1979-07-20 12:20:09.280 ,4,1,0.,4.8,4.,4.8,2.,4.8,1.,4.8
1979-07-20 12:20:14.080 ,4,1,0.,4.8,4.,4.8,2.,4.8,0.,4.8
1979-07-20 12:20:18.880 ,4,1,0.,4.8,4.,4.8,4.,4.8,0.,4.8
1979-07-20 12:20:23.680 ,7,1,0.,4.8,1.,4.8,3.,4.8,1.,4.8
1979-07-20 12:20:28.470 ,7,1,0.,4.8,4.,4.8,1.,4.8,0.,4.8
1979-07-20 12:20:33.280 ,7,1,0.,4.8,1.,4.8,3.,4.8,2.,4.8
1979-07-20 12:20:38.080 ,7,1,0.,4.8,1.,4.8,0.,4.8,1.,4.8
1979-07-20 12:20:42.880 ,7,1,0.,4.8,0.,4.8,0.,4.8,0.,4.8
1979-07-20 12:20:47.670 ,3,1,0.,4.8,1.,4.8,1.,4.8,0.,4.8
1979-07-20 12:20:52.470 ,3,1,0.,4.8,4.,4.8,1.,4.8,1.,4.8
1979-07-20 12:20:57.270 ,3,1,0.,4.8,0.,4.8,4.,4.8,3.,4.8
1979-07-20 12:21:02.070 ,3,1,0.,4.8,1.,4.8,3.,4.8,2.,4.8
1979-07-20 12:21:06.870 ,3,1,0.,4.8,1.,4.8,0.,4.8,0.,4.8
1979-07-20 12:21:11.670 ,0,1,0.,4.8,4.,4.8,1.,4.8,0.,4.8
1979-07-20 12:21:16.470 ,0,1,0.,4.8,2.,4.8,2.,4.8,2.,4.8
1979-07-20 12:21:21.270 ,0,1,0.,4.8,3.,4.8,2.,4.8,1.,4.8
1979-07-20 12:21:26.070 ,0,1,0.,4.8,3.,4.8,1.,4.8,3.,4.8
1979-07-20 12:21:30.870 ,0,1,0.,4.8,2.,4.8,2.,4.8,1.,4.8
1979-07-20 12:21:35.670 ,4,1,0.,4.8,7.,4.8,1.,4.8,1.,4.8
1979-07-20 12:21:40.470 ,4,1,0.,4.8,2.,4.8,0.,4.8,0.,4.8
1979-07-20 12:21:45.270 ,4,1,0.,4.8,2.,4.8,1.,4.8,1.,4.8
1979-07-20 12:21:50.070 ,4,1,0.,4.8,2.,4.8,4.,4.8,1.,4.8
1979-07-20 12:21:54.870 ,4,1,0.,4.8,4.,4.8,2.,4.8,1.,4.8
1979-07-20 12:21:59.670 ,7,1,0.,4.8,2.,4.8,0.,4.8,3.,4.8
1979-07-20 12:22:04.470 ,7,1,0.,4.8,1.,4.8,2.,4.8,3.,4.8
1979-07-20 12:22:09.270 ,7,1,0.,4.8,4.,4.8,2.,4.8,1.,4.8
1979-07-20 12:22:14.070 ,7,1,0.,4.8,2.,4.8,0.,4.8,0.,4.8
1979-07-20 12:22:18.870 ,7,1,0.,4.8,0.,4.8,0.,4.8,0.,4.8
1979-07-20 12:22:23.670 ,3,1,0.,4.8,1.,4.8,2.,4.8,0.,4.8
1979-07-20 12:22:28.470 ,3,1,0.,4.8,2.,4.8,1.,4.8,1.,4.8
1979-07-20 12:22:33.270 ,3,1,0.,4.8,2.,4.8,0.,4.8,2.,4.8
1979-07-20 12:22:38.070 ,3,1,0.,4.8,4.,4.8,1.,4.8,4.,4.8
1979-07-20 12:22:42.870 ,3,1,0.,4.8,6.,4.8,1.,4.8,0.,4.8
1979-07-20 12:22:47.670 ,0,1,0.,4.8,4.,4.8,3.,4.8,1.,4.8
1979-07-20 12:22:52.470 ,0,1,0.,4.8,3.,4.8,0.,4.8,3.,4.8
1979-07-20 12:22:57.270 ,0,1,0.,4.8,3.,4.8,2.,4.8,1.,4.8
1979-07-20 12:23:02.070 ,0,1,0.,4.8,1.,4.8,1.,4.8,1.,4.8
1979-07-20 12:23:06.870 ,0,1,0.,4.8,2.,4.8,0.,4.8,0.,4.8
1979-07-20 12:23:11.670 ,4,1,0.,4.8,2.,4.8,0.,4.8,0.,4.8
1979-07-20 12:23:16.470 ,4,1,0.,4.8,6.,4.8,0.,4.8,2.,4.8
1979-07-20 12:23:21.270 ,4,1,0.,4.8,1.,4.8,4.,4.8,0.,4.8
1979-07-20 12:23:26.070 ,4,1,0.,4.8,3.,4.8,3.,4.8,4.,4.8
1979-07-20 12:23:30.870 ,4,1,0.,4.8,6.,4.8,2.,4.8,0.,4.8
1979-07-20 12:23:35.670 ,7,1,0.,4.8,3.,4.8,2.,4.8,3.,4.8
1979-07-20 12:23:40.470 ,7,1,0.,4.8,2.,4.8,2.,4.8,1.,4.8
1979-07-20 12:23:45.270 ,7,1,0.,4.8,5.,4.8,2.,4.8,0.,4.8
1979-07-20 12:23:50.070 ,7,1,0.,4.8,1.,4.8,1.,4.8,0.,4.8
1979-07-20 12:23:54.870 ,7,1,0.,4.8,0.,4.8,0.,4.8,0.,4.8
1979-07-20 12:23:59.670 ,3,1,0.,4.8,4.,4.8,2.,4.8,0.,4.8
1979-07-20 12:24:04.470 ,3,1,0.,4.8,4.,4.8,1.,4.8,2.,4.8
1979-07-20 12:24:09.270 ,3,1,0.,4.8,2.,4.8,1.,4.8,4.,4.8
1979-07-20 12:24:14.070 ,3,1,0.,4.8,5.,4.8,3.,4.8,0.,4.8
1979-07-20 12:24:18.870 ,3,1,0.,4.8,4.,4.8,1.,4.8,1.,4.8
1979-07-20 12:24:23.670 ,0,1,0.,4.8,5.,4.8,5.,4.8,2.,4.8
1979-07-20 12:24:28.470 ,0,1,0.,4.8,6.,4.8,4.,4.8,0.,4.8
1979-07-20 12:24:33.270 ,0,1,0.,4.8,4.,4.8,4.,4.8,2.,4.8
1979-07-20 12:24:38.070 ,0,1,0.,4.8,2.,4.8,1.,4.8,0.,4.8
1979-07-20 12:24:42.870 ,0,1,0.,4.8,4.,4.8,1.,4.8,1.,4.8
1979-07-20 12:24:47.670 ,4,1,0.,4.8,3.,4.8,1.,4.8,2.,4.8
1979-07-20 12:24:52.470 ,4,1,0.,4.8,3.,4.8,2.,4.8,5.,4.8
1979-07-20 12:24:57.270 ,4,1,0.,4.8,6.,4.8,1.,4.8,3.,4.8
1979-07-20 12:25:02.070 ,4,1,0.,4.8,5.,4.8,4.,4.8,2.,4.8
1979-07-20 12:25:06.870 ,4,1,0.,4.8,7.,4.8,2.,4.8,4.,4.8
1979-07-20 12:25:11.670 ,7,1,0.,4.8,3.,4.8,2.,4.8,0.,4.8
1979-07-20 12:25:16.470 ,7,1,0.,4.8,5.,4.8,1.,4.8,4.,4.8
1979-07-20 12:25:21.270 ,7,1,0.,4.8,0.,4.8,3.,4.8,1.,4.8
1979-07-20 12:25:26.070 ,7,1,0.,4.8,1.,4.8,1.,4.8,2.,4.8
1979-07-20 12:25:30.870 ,7,1,0.,4.8,0.,4.8,0.,4.8,1.,4.8
1979-07-20 12:25:35.670 ,3,1,0.,4.8,1.,4.8,1.,4.8,0.,4.8
1979-07-20 12:25:40.470 ,3,1,0.,4.8,3.,4.8,2.,4.8,1.,4.8
1979-07-20 12:25:45.270 ,3,1,0.,4.8,2.,4.8,1.,4.8,0.,4.8
1979-07-20 12:25:50.070 ,3,1,0.,4.8,10.,4.8,4.,4.8,1.,4.8
1979-07-20 12:25:54.870 ,3,1,0.,4.8,5.,4.8,0.,4.8,0.,4.8
1979-07-20 12:25:59.670 ,0,1,0.,4.8,3.,4.8,2.,4.8,1.,4.8
1979-07-20 12:26:04.470 ,0,1,0.,4.8,2.,4.8,2.,4.8,2.,4.8
1979-07-20 12:26:09.270 ,0,1,0.,4.8,4.,4.8,0.,4.8,1.,4.8
1979-07-20 12:26:14.070 ,0,1,0.,4.8,4.,4.8,2.,4.8,1.,4.8
1979-07-20 12:26:18.870 ,0,1,0.,4.8,1.,4.8,0.,4.8,1.,4.8
1979-07-20 12:26:23.670 ,4,1,0.,4.8,2.,4.8,0.,4.8,2.,4.8
1979-07-20 12:26:28.470 ,4,1,0.,4.8,2.,4.8,1.,4.8,2.,4.8
1979-07-20 12:26:33.270 ,4,1,0.,4.8,3.,4.8,3.,4.8,3.,4.8
1979-07-20 12:26:38.070 ,4,1,0.,4.8,3.,4.8,1.,4.8,1.,4.8
1979-07-20 12:26:42.870 ,4,1,0.,4.8,6.,4.8,1.,4.8,4.,4.8
1979-07-20 12:26:47.670 ,7,1,0.,4.8,5.,4.8,3.,4.8,1.,4.8
1979-07-20 12:26:52.470 ,7,1,0.,4.8,3.,4.8,1.,4.8,0.,4.8
1979-07-20 12:26:57.270 ,7,1,0.,4.8,3.,4.8,3.,4.8,5.,4.8
1979-07-20 12:27:02.070 ,7,1,0.,4.8,2.,4.8,0.,4.8,0.,4.8
1979-07-20 12:27:06.870 ,7,1,0.,4.8,0.,4.8,0.,4.8,0.,4.8
1979-07-20 12:27:11.670 ,3,1,0.,4.8,1.,4.8,1.,4.8,0.,4.8
1979-07-20 12:27:16.470 ,3,1,0.,4.8,6.,4.8,2.,4.8,2.,4.8
1979-07-20 12:27:21.270 ,3,1,0.,4.8,3.,4.8,4.,4.8,0.,4.8
1979-07-20 12:27:26.070 ,3,1,0.,4.8,2.,4.8,1.,4.8,0.,4.8
1979-07-20 12:27:30.870 ,3,1,0.,4.8,3.,4.8,1.,4.8,2.,4.8
1979-07-20 12:27:35.670 ,0,1,0.,4.8,1.,4.8,3.,4.8,2.,4.8
1979-07-20 12:27:40.470 ,0,1,0.,4.8,10.,4.8,1.,4.8,2.,4.8
1979-07-20 12:27:45.270 ,0,1,0.,4.8,4.,4.8,2.,4.8,0.,4.8
1979-07-20 12:27:50.070 ,0,1,0.,4.8,1.,4.8,0.,4.8,1.,4.8
1979-07-20 12:27:54.870 ,0,1,0.,4.8,2.,4.8,3.,4.8,0.,4.8
1979-07-20 12:27:59.670 ,4,1,0.,4.8,2.,4.8,1.,4.8,1.,4.8
1979-07-20 12:28:04.470 ,4,1,0.,4.8,3.,4.8,0.,4.8,2.,4.8
1979-07-20 12:28:09.270 ,4,1,0.,4.8,3.,4.8,1.,4.8,2.,4.8
1979-07-20 12:28:14.070 ,4,1,0.,4.8,2.,4.8,0.,4.8,1.,4.8
1979-07-20 12:28:18.870 ,4,1,0.,4.8,5.,4.8,2.,4.8,1.,4.8
1979-07-20 12:28:23.670 ,7,1,0.,4.8,1.,4.8,0.,4.8,3.,4.8
1979-07-20 12:28:28.470 ,7,1,0.,4.8,3.,4.8,2.,4.8,2.,4.8
1979-07-20 12:28:33.270 ,7,1,0.,4.8,4.,4.8,1.,4.8,1.,4.8
1979-07-20 12:28:38.070 ,7,1,0.,4.8,0.,4.8,0.,4.8,2.,4.8
1979-07-20 12:28:42.870 ,7,1,0.,4.8,0.,4.8,0.,4.8,0.,4.8
1979-07-20 12:28:47.670 ,3,1,0.,4.8,1.,4.8,1.,4.8,0.,4.8
1979-07-20 12:28:52.470 ,3,1,0.,4.8,3.,4.8,2.,4.8,2.,4.8
1979-07-20 12:28:57.270 ,3,1,0.,4.8,3.,4.8,1.,4.8,2.,4.8
1979-07-20 12:29:02.070 ,3,1,0.,4.8,5.,4.8,1.,4.8,4.,4.8
1979-07-20 12:29:06.870 ,3,1,0.,4.8,2.,4.8,2.,4.8,1.,4.8
1979-07-20 12:29:11.670 ,0,1,0.,4.8,0.,4.8,3.,4.8,1.,4.8
1979-07-20 12:29:16.470 ,0,1,0.,4.8,1.,4.8,1.,4.8,2.,4.8
1979-07-20 12:29:21.270 ,0,1,0.,4.8,2.,4.8,1.,4.8,2.,4.8
1979-07-20 12:29:26.070 ,0,1,0.,4.8,3.,4.8,0.,4.8,0.,4.8
1979-07-20 12:29:30.870 ,0,1,0.,4.8,5.,4.8,1.,4.8,0.,4.8
1979-07-20 12:29:35.670 ,0,0,0.,4.8,3.,4.8,2.,4.8,1.,4.8
1979-07-20 12:29:40.470 ,0,0,0.,4.8,3.,4.8,0.,4.8,2.,4.8
1979-07-20 12:29:45.270 ,0,0,0.,4.8,1.,4.8,2.,4.8,2.,4.8
1979-07-20 12:29:50.070 ,0,0,0.,4.8,6.,4.8,3.,4.8,1.,4.8
1979-07-20 12:29:54.870 ,0,0,0.,4.8,2.,4.8,3.,4.8,3.,4.8
1979-07-20 12:29:59.670 ,0,0,0.,4.8,6.,4.8,0.,4.8,2.,4.8
1979-07-20 12:30:04.470 ,0,0,0.,4.8,4.,4.8,1.,4.8,2.,4.8
1979-07-20 12:30:09.270 ,0,0,0.,4.8,4.,4.8,1.,4.8,2.,4.8
1979-07-20 12:30:14.070 ,0,0,0.,4.8,1.,4.8,1.,4.8,1.,4.8
1979-07-20 12:30:18.870 ,0,0,0.,4.8,0.,4.8,0.,4.8,0.,4.8
1979-07-20 12:30:23.670 ,5,0,0.,4.8,3.,4.8,0.,4.8,1.,4.8
1979-07-20 12:30:28.470 ,5,0,0.,4.8,3.,4.8,0.,4.8,2.,4.8
1979-07-20 12:30:33.270 ,5,0,0.,4.8,4.,4.8,4.,4.8,0.,4.8
1979-07-20 12:30:38.070 ,5,0,0.,4.8,3.,4.8,1.,4.8,1.,4.8
1979-07-20 12:30:42.870 ,5,0,0.,4.8,2.,4.8,3.,4.8,0.,4.8
1979-07-20 12:30:47.670 ,5,0,0.,4.8,1.,4.8,2.,4.8,0.,4.8
1979-07-20 12:30:52.470 ,5,0,0.,4.8,5.,4.8,2.,4.8,3.,4.8
1979-07-20 12:30:57.270 ,5,0,0.,4.8,2.,4.8,1.,4.8,2.,4.8
1979-07-20 12:31:02.070 ,5,0,0.,4.8,2.,4.8,2.,4.8,4.,4.8
1979-07-20 12:31:06.870 ,5,0,0.,4.8,3.,4.8,1.,4.8,1.,4.8
1979-07-20 12:31:11.670 ,4,0,0.,4.8,2.,4.8,1.,4.8,1.,4.8
1979-07-20 12:31:16.470 ,4,0,0.,4.8,2.,4.8,3.,4.8,2.,4.8
1979-07-20 12:31:21.270 ,4,0,0.,4.8,5.,4.8,2.,4.8,0.,4.8
1979-07-20 12:31:26.070 ,4,0,0.,4.8,1.,4.8,0.,4.8,2.,4.8
1979-07-20 12:31:30.870 ,4,0,0.,4.8,4.,4.8,2.,4.8,1.,4.8
1979-07-20 12:31:35.670 ,4,0,0.,4.8,3.,4.8,2.,4.8,0.,4.8
1979-07-20 12:31:40.470 ,4,0,0.,4.8,6.,4.8,0.,4.8,1.,4.8
1979-07-20 12:31:45.270 ,4,0,0.,4.8,5.,4.8,1.,4.8,1.,4.8
1979-07-20 12:31:50.070 ,4,0,0.,4.8,5.,4.8,3.,4.8,0.,4.8
1979-07-20 12:31:54.870 ,4,0,0.,4.8,5.,4.8,4.,4.8,0.,4.8
1979-07-20 12:31:59.670 ,3,0,0.,4.8,3.,4.8,1.,4.8,0.,4.8
1979-07-20 12:32:04.470 ,3,0,0.,4.8,1.,4.8,1.,4.8,0.,4.8
1979-07-20 12:32:09.270 ,3,0,0.,4.8,4.,4.8,4.,4.8,1.,4.8
1979-07-20 12:32:14.070 ,3,0,0.,4.8,4.,4.8,2.,4.8,1.,4.8
1979-07-20 12:32:18.870 ,3,0,0.,4.8,5.,4.8,1.,4.8,0.,4.8
1979-07-20 12:32:23.670 ,3,0,0.,4.8,3.,4.8,1.,4.8,2.,4.8
1979-07-20 12:32:28.470 ,3,0,0.,4.8,4.,4.8,2.,4.8,1.,4.8
1979-07-20 12:32:33.270 ,3,0,0.,4.8,5.,4.8,1.,4.8,7.,4.8
1979-07-20 12:32:38.070 ,3,0,0.,4.8,3.,4.8,3.,4.8,2.,4.8
1979-07-20 12:32:42.870 ,3,0,0.,4.8,4.,4.8,1.,4.8,2.,4.8
1979-07-20 12:32:47.670 ,2,0,0.,4.8,4.,4.8,3.,4.8,2.,4.8
1979-07-20 12:32:52.470 ,2,0,0.,4.8,3.,4.8,2.,4.8,1.,4.8